RH
89 86 89 90 91 41 52 87 92 90 87 82 80 80 74 59 58 66 31 29 46 74 99 97 98 98 100 99 98 100 98 99 100 100 100 100 98 99 99 91 93 75 86
90 86 86 87 88 63 78 74 84 84 86 83 83 83 75 68 67 69 82 34 41 57 72 98 98 99 100 99 99 98 82 58 84 53 67 62 79 55 46 30 28 20 14
91 89 86 86 86 70 76 76 80 85 86 84 84 86 78 76 72 73 87 48 31 36 36 55 61 66 67 59 48 43 36 30 30 25 21 18 17 18 13 9 9 8 7
89 89 86 80 73 62 73 76 82 88 85 82 81 84 78 78 79 76 78 86 43 34 15 22 27 18 14 11 10 11 11 12 14 14 11 10 9 8 7 6 5 5 5
89 86 88 75 62 49 69 76 86 86 82 79 78 79 77 75 83 79 72 80 82 78 20 13 12 12 10 9 8 7 8 8 8 8 8 7 6 6 6 5 5 5 5
90 86 92 90 83 41 48 72 78 81 77 76 69 76 80 75 80 78 80 76 80 82 82 37 14 13 11 10 9 7 7 7 8 8 8 8 8 8 7 7 7 6 5
82 86 90 91 92 51 33 45 77 81 79 78 70 75 82 81 77 78 81 84 81 80 83 67 20 22 14 12 11 10 9 8 9 9 9 9 9 9 9 9 9 8 7
71 83 86 90 84 80 54 56 62 63 77 76 70 72 76 81 84 84 80 81 83 86 86 86 42 54 38 15 13 13 12 11 10 10 10 10 10 10 10 10 10 10 10
81 71 80 89 87 88 61 46 44 44 38 48 55 59 67 65 76 84 82 78 80 86 84 84 70 67 77 37 16 14 14 13 13 13 12 12 11 11 11 10 10 11 11
98 80 84 88 88 91 80 56 52 39 40 46 44 62 54 52 62 65 82 82 81 87 84 84 70 52 57 62 38 17 15 14 14 14 14 14 14 13 13 12 11 11 11
80 92 91 90 89 94 80 58 46 36 32 41 51 62 52 49 56 51 67 78 85 85 86 80 79 49 38 34 45 24 20 18 17 17 16 16 15 15 15 15 14 13 12
99 92 93 93 94 90 87 71 47 40 41 48 69 67 63 57 50 57 53 68 71 78 83 84 75 76 56 40 33 35 23 24 23 21 20 19 20 19 17 18 18 17 17
97 96 96 94 98 99 95 86 65 51 54 60 72 83 78 68 56 57 51 54 68 71 78 80 80 67 75 62 48 40 29 28 31 31 27 24 26 26 26 25 27 26 23
83 85 98 95 98 100 100 97 86 60 60 72 68 73 85 80 65 56 51 47 66 65 70 75 79 77 68 75 62 43 34 34 37 38 37 33 31 32 33 33 36 38 38
88 71 76 94 99 100 100 100 96 74 68 72 68 65 82 82 76 66 56 52 46 58 63 78 80 66 63 65 61 62 43 44 46 46 44 44 40 39 41 44 45 47 51
78 90 90 95 99 100 100 100 96 85 78 70 71 76 82 87 81 74 71 62 52 50 57 61 67 68 57 72 67 63 46 48 53 55 54 52 52 50 51 51 52 54 59
88 91 98 96 100 100 100 100 100 94 95 95 92 85 82 91 88 84 77 70 66 53 57 55 55 59 64 59 66 56 54 51 52 58 60 60 59 59 59 62 63 64 66
99 98 98 99 98 99 100 99 99 100 98 100 100 99 95 100 98 93 89 84 76 74 66 66 57 70 74 71 66 64 57 55 57 60 62 64 65 64 65 66 66 68 70
100 100 100 99 99 100 100 100 100 99 98 99 98 89 68 100 100 100 98 96 91 85 82 80 80 76 71 85 86 72 71 65 66 66 67 66 67 68 69 67 67 68 70
100 100 100 100 100 100 100 100 100 97 99 99 100 99 91 100 98 100 100 99 99 100 98 96 95 94 91 87 95 85 84 81 72 74 70 70 70 72 71 70 71 70 73
98 100 100 100 100 100 99 100 100 100 100 99 99 99 99 100 98 99 100 100 100 100 99 100 100 100 96 94 96 93 93 89 85 88 81 81 81 81 81 85 82 78 77
100 95 100 100 100 100 99 100 100 100 100 100 100 100 100 100 100 99 100 100 100 100 100 100 100 100 98 98 91 89 89 93 100 98 98 89 74 75 81 86 88 91 92
91 99 98 89 91 95 97 100 100 100 99 100 100 99 100 97 97 87 100 100 100 99 96 99 92 87 99 95 98 97 98 91 83 87 85 91 86 82 75 73 82 92 96
50 78 76 94 90 83 84 89 94 100 99 100 98 100 100 100 99 94 100 100 100 98 94 94 99 92 92 87 91 97 91 91 95 100 93 99 94 98 95 85 92 97 94
57 48 44 61 64 83 86 75 79 64 87 99 100 100 100 100 99 100 100 98 100 99 96 99 100 100 99 98 100 100 99 100 100 97 99 100 98 100 99 92 96 93 93
62 52 58 47 42 46 56 72 86 65 60 53 62 76 80 93 100 100 100 100 100 98 99 99 100 100 100 100 100 100 100 100 99 100 98 100 98 100 100 92 92 91 91
Wind_Speed
34 36 31 28 26 29 28 25 22 19 18 16 16 13 13 12 13 10 16 18 19 19 20 20 19 18 18 17 15 13 12 12 12 12 10 10 11 10 10 10 9 8 6
36 39 35 30 28 30 28 27 22 20 19 17 17 15 14 13 14 11 13 20 19 19 19 20 19 18 18 18 17 14 12 13 14 13 11 11 10 9 8 6 6 5 4
38 40 37 34 32 33 28 28 25 23 20 18 17 16 15 14 13 13 13 16 20 20 20 21 21 19 18 18 17 16 15 14 12 11 10 8 7 7 6 4 3 3 4
41 40 41 38 37 37 36 32 30 25 24 20 19 17 16 14 14 14 13 13 16 17 18 19 19 18 16 15 14 14 14 13 13 12 10 8 8 6 6 5 5 5 4
43 42 41 41 42 41 39 36 32 27 26 23 20 18 17 16 15 14 15 14 14 14 15 17 17 17 16 15 15 15 15 14 13 12 11 10 9 8 7 7 6 5 5
46 42 38 40 44 43 43 39 36 31 27 24 21 19 17 16 15 15 16 16 16 16 13 17 18 18 17 16 16 16 16 15 14 13 13 12 11 10 9 7 7 6 5
49 45 40 40 43 47 47 45 39 35 30 27 24 19 15 17 17 17 17 17 18 19 18 19 18 17 18 18 18 18 16 15 15 14 14 12 12 11 11 10 8 7 7
49 50 45 42 48 46 47 47 47 43 33 33 30 24 18 17 20 21 20 20 21 19 20 20 18 18 18 21 21 19 18 17 17 16 15 15 15 14 13 12 11 10 9
49 52 52 43 49 50 53 52 51 48 42 40 33 21 18 16 22 23 27 24 24 23 22 22 23 21 20 20 22 21 20 19 18 17 17 17 17 16 16 15 14 13 12
47 50 54 50 52 51 52 53 51 49 40 40 38 31 22 13 19 15 28 30 28 27 27 24 26 26 25 24 24 23 22 21 20 19 19 19 19 19 19 17 17 16 15
49 51 53 56 57 53 56 56 51 47 43 38 36 38 39 27 21 20 21 32 31 31 30 31 28 29 29 28 28 28 23 23 23 22 23 23 22 21 20 19 19 19 18
51 52 54 58 60 61 59 58 53 53 48 43 41 46 46 42 33 28 21 30 36 33 32 31 34 31 31 32 31 30 28 25 26 26 26 25 24 23 23 22 21 21 20
51 54 55 59 62 60 60 59 56 57 57 55 49 48 46 48 41 32 24 20 27 24 31 33 34 35 32 32 33 33 32 27 27 27 27 27 26 25 25 24 23 22 22
51 53 57 60 62 62 59 57 56 61 59 59 49 49 54 48 44 42 33 26 18 23 27 32 34 36 35 34 34 34 32 31 30 30 30 29 29 29 28 26 23 23 21
42 47 52 58 62 64 64 59 54 60 65 64 62 52 60 50 47 42 39 41 28 23 30 25 23 36 37 34 35 34 32 29 29 32 33 32 32 32 31 28 26 24 24
47 48 52 56 60 65 64 64 58 55 63 68 65 64 63 53 47 43 43 40 43 31 27 29 28 24 28 31 32 33 30 28 28 30 34 35 34 34 34 32 30 28 27
46 49 50 50 61 61 63 66 59 57 60 62 62 64 65 57 51 44 45 46 39 47 34 29 20 23 27 23 28 31 31 30 30 31 32 35 37 37 36 35 33 31 31
43 43 49 50 54 58 64 67 62 56 59 62 57 57 61 56 52 48 43 44 46 41 43 37 34 17 25 27 24 29 33 31 32 34 30 32 35 37 38 37 37 37 36
33 37 42 47 50 57 64 64 63 55 62 62 59 56 53 57 58 56 50 46 45 46 44 41 37 41 44 29 29 28 33 31 31 30 30 31 32 34 36 37 39 40 41
11 26 34 35 42 47 50 56 61 48 62 59 58 60 54 56 56 56 55 53 45 41 41 38 36 35 31 33 32 33 36 33 33 30 31 30 30 30 31 34 36 41 43
24 19 14 23 30 41 40 47 50 57 60 62 56 59 54 52 51 51 51 52 55 53 51 46 43 36 38 38 38 36 31 30 30 31 32 34 33 33 34 34 38 40 41
23 26 20 16 14 17 18 32 40 46 48 56 53 53 54 48 47 39 46 43 48 56 53 47 43 42 41 42 43 42 38 35 35 38 34 34 33 34 36 37 33 37 40
23 22 19 19 16 13 12 11 19 22 26 31 37 39 43 42 30 34 40 36 45 32 37 39 37 37 40 39 39 37 36 33 37 40 38 44 41 46 43 39 38 36 37
17 15 13 16 16 18 16 17 11 11 19 22 29 35 40 38 31 32 35 37 38 31 36 38 40 36 36 38 39 36 32 30 35 39 36 42 40 44 40 36 35 32 30
11 9 15 13 15 13 10 12 10 11 5 9 17 23 21 29 31 36 35 36 38 38 36 41 43 35 38 41 41 34 31 32 37 33 32 34 36 38 36 33 27 27 28
22 20 12 10 10 6 9 9 10 9 6 4 1 7 8 13 19 22 31 37 39 34 33 34 40 45 47 44 40 38 32 36 36 36 31 32 30 31 31 32 30 28 28
Wind_Direction
196 188 199 188 186 187 190 180 183 176 181 181 187 185 176 170 172 182 182 185 180 176 175 176 179 181 180 180 181 185 181 175 178 178 181 181 181 182 188 189 197 196 186
198 194 202 187 186 189 190 178 187 182 186 186 187 183 179 179 168 182 186 183 183 184 178 176 183 187 188 189 191 189 190 182 189 186 184 185 185 193 199 199 208 217 234
198 197 201 187 189 190 187 178 191 188 187 189 189 185 182 180 177 168 190 188 189 190 188 186 188 189 192 194 196 194 193 192 192 195 197 202 208 212 218 223 234 241 221
198 201 203 192 200 191 185 180 192 190 185 189 188 188 186 185 186 178 176 185 191 195 194 191 194 198 200 200 202 202 203 200 204 207 207 211 217 215 221 221 223 208 193
198 205 203 198 206 200 190 185 193 192 187 188 189 189 189 189 192 187 186 183 192 195 199 197 197 199 201 201 202 205 208 207 208 208 206 207 205 205 213 205 205 194 190
199 208 198 199 207 206 201 190 196 188 190 187 188 189 193 195 198 196 195 187 194 193 196 213 204 202 203 205 203 205 209 208 206 207 209 208 207 209 210 211 206 195 203
204 206 197 203 207 210 210 205 197 187 185 187 182 186 196 202 204 203 200 198 202 196 194 229 213 209 207 208 208 207 209 210 211 213 213 214 215 215 218 221 219 213 211
209 204 200 205 210 209 210 203 203 197 186 185 185 179 190 210 213 207 209 206 207 204 203 208 211 204 224 215 213 213 211 213 215 217 219 220 222 223 225 226 228 227 220
211 208 207 203 212 213 213 211 210 207 196 197 193 192 191 214 210 218 205 210 212 207 207 211 211 210 213 229 222 218 218 220 221 221 223 226 229 228 230 231 233 233 232
211 213 209 202 215 215 218 214 211 209 200 201 202 200 206 207 198 205 215 209 214 215 212 212 218 215 216 217 236 228 223 226 227 228 229 231 233 233 234 234 236 238 239
218 215 211 207 214 217 224 220 213 209 209 212 220 223 217 211 222 211 207 210 213 219 216 213 218 223 223 226 226 239 229 229 231 231 233 233 236 237 239 240 241 243 244
208 214 216 215 217 219 225 225 215 216 219 222 230 226 226 222 223 215 221 206 215 218 218 223 218 224 228 230 229 236 238 230 234 235 237 237 238 240 241 241 241 242 243
209 212 216 220 220 219 226 230 217 216 218 218 219 221 232 226 223 221 226 217 210 214 219 220 228 225 227 233 234 232 243 237 235 237 238 241 240 240 240 240 241 241 242
221 223 220 225 227 221 218 228 222 219 218 223 222 228 232 227 224 223 221 220 207 212 214 218 224 227 229 227 236 239 241 243 238 239 239 239 241 243 244 244 243 243 245
224 233 231 228 228 228 224 222 227 223 224 226 225 223 227 222 221 224 222 220 226 208 210 215 214 229 229 232 233 236 239 242 240 239 241 240 240 243 245 246 244 242 243
227 229 232 229 229 223 226 220 228 227 228 229 229 230 227 221 221 221 224 227 220 229 223 217 232 229 235 226 233 235 239 242 243 240 239 241 242 243 245 245 245 246 247
229 227 228 228 224 221 222 222 229 227 226 228 227 228 229 223 219 225 221 224 228 222 230 224 231 231 235 232 228 237 237 240 242 244 242 243 244 245 246 249 252 252 253
222 226 226 225 224 222 225 226 227 223 223 226 227 229 230 222 224 218 221 222 222 227 226 230 221 218 225 239 232 237 241 240 243 248 247 247 247 247 247 249 251 254 255
218 217 210 220 231 224 216 218 226 231 229 228 232 232 233 230 227 224 219 224 224 226 228 231 236 237 237 236 232 230 243 242 243 248 248 248 248 247 248 249 251 253 255
104 191 194 197 196 205 220 231 231 232 232 235 235 235 238 235 233 230 228 225 224 221 228 225 229 231 236 230 223 231 236 238 242 244 247 249 250 250 247 249 251 253 255
54 73 125 176 196 202 206 209 213 222 232 232 234 237 239 238 237 234 234 234 232 229 234 234 231 228 223 216 218 227 231 243 251 252 255 257 259 260 260 256 255 254 256
26 40 62 81 120 155 172 200 208 215 218 224 226 233 238 241 234 239 241 238 240 229 230 231 236 229 228 230 232 236 245 246 248 254 258 258 269 272 265 262 262 264 261
23 18 22 51 57 72 108 140 185 187 201 212 217 228 232 232 240 246 245 243 234 234 240 242 234 242 243 246 245 241 240 247 261 262 267 266 267 271 271 269 267 263 260
19 8 3 14 39 40 40 69 56 166 186 201 208 216 220 225 237 243 245 249 233 233 238 240 248 251 250 251 254 247 258 270 260 257 264 263 272 264 260 266 260 258 257
4 350 17 354 8 7 22 36 -0 62 96 189 195 205 203 215 223 227 236 248 233 240 247 253 247 253 250 249 246 245 251 253 254 255 256 257 264 262 261 260 256 255 252
8 11 326 330 341 329 335 345 339 357 7 52 346 212 210 224 220 226 224 229 239 247 244 250 248 249 249 251 244 248 253 252 254 256 258 257 260 256 257 258 260 262 263